FW8060 Weather Reports


Display with metric or nautical units.
time (UTC)temp
F
wind
direction
speed
MPH
gust
MPH
rain 1hr
in
rain 24hr
in
rain mn
in
humidity
%
barometer
mb
20260906211607 67 165 1.0 5.0 0.00 0.00 0.00 69 1019.3
20260906210606 68 165 0.0 1.0 0.00 0.00 0.00 68 1019.4
20260906205611 67 165 0.0 2.0 0.00 0.00 0.00 69 1019.4
20260906204604 67 165 0.0 0.0 0.00 0.00 0.00 69 1019.6
20260906203558 68 165 1.0 4.0 0.00 0.00 0.00 68 1019.5
20260906202557 67 165 1.0 4.0 0.00 0.00 0.00 69 1019.6
20260906201606 68 165 0.0 0.0 0.00 0.00 0.00 67 1019.7
20260906200558 68 165 0.0 0.0 0.00 0.00 0.00 68 1019.8
20260906195717 69 165 0.0 1.0 0.00 0.00 0.00 64 1020.0
20260906195604 69 165 0.0 0.0 0.00 0.00 0.00 66 1019.9
20260906193559 69 165 0.0 0.0 0.00 0.00 0.00 65 1019.7
20260906193440 69 165 0.0 1.0 0.00 0.00 0.00 63 1019.9
20260906192535 69 165 0.0 2.0 0.00 0.00 0.00 64 1020.2
20260906190557 70 165 0.0 1.0 0.00 0.00 0.00 63 1020.4
20260906185558 70 165 1.0 2.0 0.00 0.00 0.00 63 1020.3
20260906184606 71 165 1.0 4.0 0.00 0.00 0.00 62 1020.4
20260906183601 71 165 1.0 3.0 0.00 0.00 0.00 61 1020.4
20260906182602 72 140 2.0 4.0 0.00 0.00 0.00 60 1020.3
20260906181624 72 123 1.0 3.0 0.00 0.00 0.00 59 1020.3
20260906181556 72 141 1.0 3.0 0.00 0.00 0.00 59 1020.3
20260906175555 72 123 1.0 3.0 0.00 0.00 0.00 59 1020.4
20260906174555 73 123 1.0 7.0 0.00 0.00 0.00 58 1020.0
20260906173600 73 132 1.0 3.0 0.00 0.00 0.00 57 1020.1
20260906172555 73 107 0.0 2.0 0.00 0.00 0.00 57 1020.1
20260906171552 74 134 2.0 7.0 0.00 0.00 0.00 56 1020.3
20260906170702 74 128 3.0 7.0 0.00 0.00 0.00 54 1021.0
20260906170557 74 115 2.0 9.0 0.00 0.00 0.00 54 1020.5
20260906165500 75 132 3.0 5.0 0.00 0.00 0.00 53 1021.2
20260906163553 75 132 3.0 7.0 0.00 0.00 0.00 52 1021.2
20260906162551 75 127 3.0 7.0 0.00 0.00 0.00 51 1021.4
20260906162500 76 112 3.0 7.0 0.00 0.00 0.00 49 1021.4
20260906161500 76 129 3.0 7.0 0.00 0.00 0.00 48 1021.5
20260906155550 77 196 3.0 10.0 0.00 0.00 0.00 48 1021.6
20260906154551 78 159 3.0 9.0 0.00 0.00 0.00 46 1021.6
20260906153553 78 130 3.0 8.0 0.00 0.00 0.00 50 1021.7
20260906152550 77 169 3.0 8.0 0.00 0.00 0.00 48 1021.6
20260906151550 78 131 3.0 8.0 0.00 0.00 0.00 48 1021.6
20260906150552 77 143 4.0 8.0 0.00 0.00 0.00 49 1021.6
20260906145551 77 143 4.0 9.0 0.00 0.00 0.00 47 1021.8
20260906144556 77 238 3.0 10.0 0.00 0.00 0.00 47 1021.9
20260906143549 78 186 3.0 10.0 0.00 0.00 0.00 46 1022.0
20260906142547 78 106 5.0 10.0 0.00 0.00 0.00 45 1022.0
20260906141547 79 167 3.0 9.0 0.00 0.00 0.00 46 1022.0
20260906140551 78 117 4.0 12.0 0.00 0.00 0.00 48 1022.0
20260906135555 78 144 4.0 13.0 0.00 0.00 0.00 48 1022.0
20260906135525 78 157 4.0 9.0 0.00 0.00 0.00 48 1022.1
20260906133545 77 173 3.0 9.0 0.00 0.00 0.00 50 1022.4
20260906133452 77 157 4.0 10.0 0.00 0.00 0.00 50 1022.7
20260906132749 78 230 3.0 8.0 0.00 0.00 0.00 49 1022.6
20260906130549 76 138 3.0 9.0 0.00 0.00 0.00 50 1022.7
20260906125548 77 213 4.0 13.0 0.00 0.00 0.00 51 1022.8
20260906124542 78 134 5.0 11.0 0.00 0.00 0.00 50 1023.0
20260906123546 76 198 4.0 9.0 0.00 0.00 0.00 52 1022.8
20260906122545 76 153 4.0 11.0 0.00 0.00 0.00 52 1022.8
20260906122428 76 126 4.0 9.0 0.00 0.00 0.00 54 1023.0
20260906120550 75 152 5.0 11.0 0.00 0.00 0.00 55 1023.1
20260906115540 75 133 4.0 10.0 0.00 0.00 0.00 56 1023.1
20260906114536 74 148 5.0 12.0 0.00 0.00 0.00 57 1023.3
20260906113535 74 140 5.0 12.0 0.00 0.00 0.00 57 1023.4
20260906112539 73 167 6.0 13.0 0.00 0.00 0.00 58 1023.5
20260906111538 73 122 4.0 14.0 0.00 0.00 0.00 59 1023.8
20260906110538 73 215 4.0 10.0 0.00 0.00 0.00 60 1024.0
20260906105536 73 196 4.0 12.0 0.00 0.00 0.00 59 1023.9
20260906104531 72 131 4.0 10.0 0.00 0.00 0.00 58 1024.0
20260906103534 71 225 4.0 9.0 0.00 0.00 0.00 61 1024.0
20260906102533 71 144 5.0 11.0 0.00 0.00 0.00 61 1024.0
20260906101536 71 129 3.0 9.0 0.00 0.00 0.00 64 1024.3
20260906100536 71 194 4.0 10.0 0.00 0.00 0.00 63 1024.4
20260906095532 69 112 3.0 8.0 0.00 0.00 0.00 67 1024.6
20260906094532 69 155 4.0 8.0 0.00 0.00 0.00 68 1024.6
20260906093526 68 169 5.0 12.0 0.00 0.00 0.00 68 1024.6
20260906092528 67 207 4.0 9.0 0.00 0.00 0.00 70 1024.7
20260906091533 67 146 4.0 9.0 0.00 0.00 0.00 72 1024.8
20260906090525 66 138 4.0 10.0 0.00 0.00 0.00 73 1024.8
20260906090412 65 132 4.0 10.0 0.00 0.00 0.00 73 1025.0
20260906084529 65 157 4.0 9.0 0.00 0.00 0.00 73 1025.0
20260906083530 64 88 3.0 8.0 0.00 0.00 0.00 77 1024.9
20260906083413 63 117 2.0 8.0 0.00 0.00 0.00 77 1025.2
20260906081525 63 144 3.0 7.0 0.00 0.00 0.00 79 1025.2
20260906080526 61 131 3.0 9.0 0.00 0.00 0.00 80 1025.0
20260906075524 61 98 3.0 10.0 0.00 0.00 0.00 81 1024.8
20260906074526 60 185 3.0 8.0 0.00 0.00 0.00 81 1024.9
20260906073525 60 146 3.0 7.0 0.00 0.00 0.00 83 1025.0
20260906072536 59 155 3.0 8.0 0.00 0.00 0.00 83 1024.9
20260906071525 58 113 2.0 7.0 0.00 0.00 0.00 84 1024.8
20260906070531 58 133 3.0 8.0 0.00 0.00 0.00 84 1024.9
20260906065528 57 113 2.0 6.0 0.00 0.00 0.00 85 1024.8
20260906064526 56 131 0.0 2.0 0.00 0.00 0.00 87 1024.9
20260906063524 55 131 0.0 3.0 0.00 0.00 0.00 88 1024.9
20260906063311 55 76 1.0 5.0 0.00 0.00 0.00 88 1025.1
20260906061525 55 130 1.0 4.0 0.00 0.00 0.00 88 1025.2
20260906060530 55 130 1.0 5.0 0.00 0.00 0.00 88 1025.2
20260906055524 54 130 1.0 3.0 0.00 0.00 0.00 88 1025.1
20260906054520 54 130 0.0 2.0 0.00 0.00 0.00 88 1025.0
20260906053517 54 130 0.0 3.0 0.00 0.00 0.00 88 1025.0
20260906053354 55 130 1.0 3.0 0.00 0.00 0.00 87 1025.0
20260906051522 55 130 0.0 3.0 0.00 0.00 0.00 87 1025.0
20260906050521 55 130 2.0 4.0 0.00 0.00 0.00 87 1025.1
20260906045520 55 128 3.0 7.0 0.00 0.00 0.00 87 1025.2
20260906044519 55 121 3.0 7.0 0.00 0.00 0.00 86 1025.2
20260906043515 55 136 1.0 3.0 0.00 0.00 0.00 86 1025.4
20260906042518 55 136 2.0 5.0 0.00 0.00 0.00 86 1025.5
20260906042421 55 135 3.0 6.0 0.00 0.00 0.00 86 1025.4
20260906040519 55 135 2.0 6.0 0.00 0.00 0.00 86 1025.6
20260906035516 56 132 1.0 5.0 0.00 0.00 0.00 86 1025.6
20260906034516 56 130 2.0 5.0 0.00 0.00 0.00 86 1025.5
20260906034325 56 117 1.0 5.0 0.00 0.00 0.00 86 1025.6
20260906032511 56 123 2.0 4.0 0.00 0.00 0.00 86 1025.6
20260906032101 56 133 3.0 7.0 0.00 0.00 0.00 85 1025.8
20260906032011 56 123 1.0 3.0 0.00 0.00 0.00 85 1025.7
20260906031611 56 123 1.0 4.0 0.00 0.00 0.00 85 1025.7
20260906024522 56 129 2.0 6.0 0.00 0.00 0.00 85 1026.0
20260906023520 56 134 3.0 6.0 0.00 0.00 0.00 86 1026.2
20260906022516 56 134 2.0 7.0 0.00 0.00 0.00 85 1026.3
20260906021510 56 132 2.0 4.0 0.00 0.00 0.00 85 1026.4
20260906020511 56 128 3.0 5.0 0.00 0.00 0.00 85 1026.5
20260906015511 56 122 2.0 4.0 0.00 0.00 0.00 84 1026.4
20260906014511 56 122 2.0 5.0 0.00 0.00 0.00 84 1026.4
20260906013511 56 126 2.0 4.0 0.00 0.00 0.00 85 1026.5
20260906013444 56 126 2.0 4.0 0.00 0.00 0.00 85 1026.3
20260906012709 56 126 0.0 3.0 0.00 0.00 0.00 85 1026.4
20260906011728 56 126 1.0 3.0 0.00 0.00 0.00 85 1026.2
20260906005515 56 126 0.0 3.0 0.00 0.00 0.00 86 1026.2
20260906004513 56 126 2.0 4.0 0.00 0.00 0.00 85 1026.4
20260906003516 56 126 2.0 3.0 0.00 0.00 0.00 85 1026.4
20260906002512 56 126 2.0 3.0 0.00 0.00 0.00 84 1026.6
20260906001509 57 126 2.0 4.0 0.00 0.00 0.00 84 1026.8
20260906000514 57 327 1.0 4.0 0.00 0.00 0.00 84 1026.6
20260905235510 57 327 1.0 3.0 0.00 0.00 0.00 84 1026.5
20260905235228 57 327 1.0 3.0 0.00 0.00 0.00 83 1026.2
20260905234652 57 327 0.0 2.0 0.00 0.00 0.00 84 1026.3
20260905232518 57 327 1.0 3.0 0.00 0.00 0.00 83 1026.3
20260905231506 57 327 0.0 2.0 0.00 0.00 0.00 83 1026.2
20260905230506 57 327 0.0 2.0 0.00 0.00 0.00 83 1026.2
20260905225503 57 327 0.0 2.0 0.00 0.00 0.00 83 1026.1
20260905224507 57 327 1.0 2.0 0.00 0.00 0.00 85 1026.1
20260905223507 56 327 0.0 0.0 0.00 0.00 0.00 85 1026.1
20260905222503 57 327 0.0 0.0 0.00 0.00 0.00 84 1026.1
20260905221502 57 327 0.0 1.0 0.00 0.00 0.00 83 1026.0
20260905220503 57 327 0.0 1.0 0.00 0.00 0.00 83 1026.1
20260905215456 58 327 0.0 0.0 0.00 0.00 0.00 83 1026.0
20260905214458 57 327 0.0 0.0 0.00 0.00 0.00 84 1026.0
20260905213456 57 327 0.0 0.0 0.00 0.00 0.00 83 1026.0